[[{"header":{"parameterUnit":"m.s-1","parameterCategory":1,"la1":30.2991,"la2":30.254,"lo1":-89.0895,"lo2":-89.0444,"dy":0.0017,"dx":0.0017,"nx":28,"ny":28,"refTime":"2025-05-31T03:00:00:Z","depth":0,"parameterNumber":2,"parameterNumberName":"U-component_of_WINDS"},"data":[0,0,0,0,0,0,0,0,0,0,0,0,0,0,0,0,0,0,0,0,0,0,0,0,0,0,0,0,0,0,0,0,0,0,0,0,0,0,0,0,0,0,0,0,0,0,0,0,0,0,0,0,0,0,0,0,0,0,-2.3754,-2.3754,0,-2.3766,-2.3766,-2.3767,-2.3713,-2.3711,-2.3709,-2.3708,-2.3721,-2.3722,-2.3724,0,0,0,0,0,0,0,0,0,0,0,0,0,-2.3685,-2.3687,-2.3754,-2.3754,-2.3755,-2.3766,-2.3766,-2.3767,-2.3713,-2.3711,-2.3709,-2.3707,-2.372,-2.3722,-2.3724,0,0,0,0,0,0,0,0,0,0,0,0,0,-2.3708,-2.3687,-2.3754,-2.3729,-2.3727,-2.3766,-2.3766,-2.3767,-2.3713,-2.3711,-2.3708,-2.3706,-2.3719,-2.3722,-2.3725,-2.3789,0,0,-2.3733,-2.3734,0,0,0,0,0,0,0,0,-2.3707,-2.3711,-2.3733,-2.3731,-2.3729,-2.3735,-2.3747,-2.3774,-2.3714,-2.3719,-2.3708,-2.3705,-2.3728,-2.3729,-2.3737,-2.3789,-2.379,-2.3733,-2.3735,-2.3736,-2.3737,0,0,0,0,0,0,0,-2.3705,-2.371,-2.3759,-2.3733,-2.3731,-2.3717,-2.3718,-2.3752,-2.3736,-2.3718,-2.3714,-2.3716,-2.3726,-2.3734,-2.3737,-2.379,-2.3733,-2.3735,-2.3737,-2.3738,-2.3896,-2.3899,0,0,0,0,0,0,-2.3707,-2.3709,-2.3759,-2.3759,-2.3712,-2.3721,-2.3721,-2.3736,-2.3736,-2.3733,-2.3718,-2.3714,-2.3731,-2.3734,-2.3737,-2.3813,-2.3736,-2.3738,-2.374,-2.3894,-2.3897,-2.39,0,0,0,0,0,0,-2.3706,-2.3712,-2.3758,-2.3733,-2.3738,-2.3724,-2.3741,-2.3737,-2.3746,-2.3736,-2.3733,-2.373,-2.3729,-2.3733,-2.3776,-2.3813,-2.374,-2.3742,-2.3891,-2.3895,-2.3898,-2.3965,0,0,0,0,0,0,-2.3704,-2.3712,-2.3736,-2.3734,-2.374,-2.3798,-2.3743,-2.3739,-2.375,-2.3745,-2.3746,-2.3744,-2.3728,-2.3773,-2.3779,-2.3815,-2.3744,-2.3888,-2.3893,-2.3897,-2.396,-2.3971,-2.398,0,0,0,0,0,-2.3702,-2.3754,-2.3738,-2.3744,-2.3769,-2.38,-2.3803,-2.3783,-2.3753,-2.3778,-2.3772,-2.3744,-2.3807,-2.3778,-2.3784,-2.3822,-2.3885,-2.3891,-2.3897,-2.3955,-2.3968,-2.398,0,0,0,0,0,0,-2.3761,-2.3753,-2.3735,-2.3788,-2.3795,-2.3791,-2.3821,-2.3798,-2.3813,-2.3807,-2.3782,-2.3783,-2.3831,-2.383,-2.3797,-2.3884,-2.3841,-2.3849,-2.3883,-2.3896,-2.3906,-2.3906,-2.3747,0,0,0,0,0,-2.378,-2.3805,-2.3797,-2.3845,-2.3849,-2.3835,-2.3847,-2.3831,-2.3837,-2.384,-2.3837,-2.3844,-2.3865,-2.388,-2.3899,-2.3959,-2.3959,-2.3988,-2.3998,-2.4006,-2.4014,-2.4046,-2.4059,-2.3919,-2.3919,-2.3919,0,0,-2.382,-2.3819,-2.3836,-2.3857,-2.386,-2.3887,-2.3837,-2.3868,-2.3888,-2.3844,-2.3886,-2.3884,-2.389,-2.3942,-2.3964,-2.3943,-2.4052,-2.4014,-2.4021,-2.4023,-2.4053,-2.4066,-2.4078,-2.3923,-2.3922,-2.3921,0,0,-2.3907,-2.3908,-2.3949,-2.3953,-2.3959,-2.3949,-2.3959,-2.3958,-2.3955,-2.3995,-2.3964,-2.3987,-2.4024,-2.4031,-2.4039,-2.4128,-2.4103,-2.4135,-2.4189,-2.4221,-2.4232,-2.4242,-2.4275,-2.4287,-2.4142,-2.4142,-2.4142,0,-2.3956,-2.3996,-2.3973,-2.4006,-2.4016,-2.3978,-2.4019,-2.4024,-2.4036,-2.4044,-2.4019,-2.4066,-2.4068,-2.4121,-2.4143,-2.415,-2.4161,-2.4135,-2.4232,-2.4242,-2.425,-2.4282,-2.4294,-2.4146,-2.4145,-2.4145,-2.4145,0,-2.4056,-2.4084,-2.4116,-2.4129,-2.4142,-2.4179,-2.4162,-2.4179,-2.4162,-2.4154,-2.4196,-2.4197,-2.4216,-2.4227,-2.421,-2.4278,-2.4265,-2.4236,-2.4193,-2.4268,-2.4297,-2.4309,-2.4151,-2.415,-2.4149,-2.4148,0,0,-2.4182,-2.4181,-2.4194,-2.4199,-2.4203,-2.4224,-2.4259,-2.4278,-2.4293,-2.4302,-2.4332,-2.4364,-2.4339,-2.4348,-2.4331,-2.4359,-2.4431,-2.4327,-2.4327,-2.4348,-2.4507,-2.453,-2.4544,-2.4414,-2.4416,-2.4418,-2.4507,0,-2.4268,-2.4329,-2.4309,-2.437,-2.4396,-2.436,-2.4391,-2.4397,-2.4391,-2.4412,-2.4404,-2.4429,-2.4392,-2.4397,-2.4423,-2.4417,-2.4463,-2.441,-2.4443,-2.4444,-2.4444,-2.4559,-2.4582,-2.4666,-2.4518,-2.452,-2.4522,0,-2.4377,-2.4391,-2.4456,-2.4455,-2.4465,-2.4493,-2.4509,-2.4529,-2.4535,-2.4529,-2.4539,-2.4517,-2.4552,-2.4508,-2.4556,-2.452,-2.4532,-2.4531,-2.4534,-2.4537,-2.4488,-2.4567,-2.4692,-2.4706,-2.4539,-2.4538,-2.4536,0,-2.4464,-2.4499,-2.4542,-2.4548,-2.4548,-2.4569,-2.457,-2.4573,-2.4586,-2.46,-2.4608,-2.4625,-2.4635,-2.4649,-2.4633,-2.4602,-2.4684,-2.4638,-2.4681,-2.4681,-2.4701,-2.47,-2.4832,-2.4706,-2.4706,-2.4705,-2.4705,0,-2.4564,-2.4605,-2.4581,-2.4608,-2.4653,-2.463,-2.4675,-2.4672,-2.4675,-2.4701,-2.467,-2.4695,-2.4671,-2.4694,-2.4681,-2.4723,-2.4728,-2.4724,-2.472,-2.4728,-2.4728,-2.4736,-2.4731,-2.4709,-2.4708,-2.4707,-2.4707,0,-2.4669,-2.4655,-2.47,-2.4696,-2.4697,-2.473,-2.4727,-2.4752,-2.4743,-2.4776,-2.4783,-2.4769,-2.4795,-2.4779,-2.4804,-2.4796,-2.4852,-2.4839,-2.485,-2.4847,-2.4891,-2.4888,-2.5034,-2.5052,-2.4913,-2.4915,-2.4916,0,-2.4734,-2.4765,-2.4765,-2.478,-2.4784,-2.4808,-2.4821,-2.4799,-2.4814,-2.4823,-2.4847,-2.4869,-2.4886,-2.4928,-2.4921,-2.494,-2.4929,-2.4979,-2.4932,-2.4939,-2.4932,-2.4931,-2.4934,-2.4989,-2.499,-2.4992,-2.4993,0,-2.4852,-2.4844,-2.4863,-2.4881,-2.4897,-2.491,-2.492,-2.4934,-2.4912,-2.493,-2.4956,-2.4969,-2.4995,-2.5018,-2.5034,-2.5036,-2.5011,-2.5007,-2.5019,-2.5027,-2.5033,-2.5032,-2.4878,-2.5005,-2.5003,-2.5002,-2.5002,-2.5001,-2.4941,-2.4967,-2.4971,-2.4994,-2.4999,-2.501,-2.5033,-2.5027,-2.5048,-2.5068,-2.5053,-2.5084,-2.5089,-2.5109,-2.5113,-2.5137,-2.5117,-2.5132,-2.5137,-2.5141,-2.5148,-2.5028,-2.5139,-2.5139,-2.5139,-2.5138,-2.5138,0,-2.5058,-2.5059,-2.5081,-2.5096,-2.5114,-2.5089,-2.5099,-2.5116,-2.5143,-2.515,-2.5167,-2.5197,-2.5219,-2.5214,-2.5234,-2.5254,-2.5243,-2.526,-2.5259,-2.526,-2.5164,-2.5153,-2.5268,-2.5268,-2.5268,-2.5268,-2.5268,-2.5268,-2.5122,-2.5165,-2.5157,-2.5202,-2.5203,-2.5233,-2.5241,-2.525,-2.5256,-2.529,-2.5308,-2.5304,-2.5306,-2.5326,-2.5346,-2.5344,-2.5353,-2.5374,-2.5368,-2.5279,-2.5267,-2.5254,-2.5244,-2.5376,-2.5376,-2.5462,-2.5463,-2.5464]},{"header":{"parameterUnit":"m.s-1","parameterCategory":1,"la1":30.2991,"la2":30.254,"lo1":-89.0895,"lo2":-89.0444,"dy":0.0017,"dx":0.0017,"nx":28,"ny":28,"refTime":"2025-05-31T03:00:00:Z","depth":0,"parameterNumber":3,"parameterNumberName":"V-component_of_WINDS"},"data":[0,0,0,0,0,0,0,0,0,0,0,0,0,0,0,0,0,0,0,0,0,0,0,0,0,0,0,0,0,0,0,0,0,0,0,0,0,0,0,0,0,0,0,0,0,0,0,0,0,0,0,0,0,0,0,0,0,0,-3.7909,-3.7909,0,-3.7919,-3.7919,-3.7919,-3.7884,-3.7883,-3.7882,-3.7881,-3.7889,-3.789,-3.7892,0,0,0,0,0,0,0,0,0,0,0,0,0,-3.7857,-3.7858,-3.7909,-3.7909,-3.7909,-3.7919,-3.7919,-3.7919,-3.7884,-3.7883,-3.7881,-3.788,-3.7889,-3.789,-3.7892,0,0,0,0,0,0,0,0,0,0,0,0,0,-3.7875,-3.7859,-3.7909,-3.7893,-3.7892,-3.7919,-3.7919,-3.7919,-3.7884,-3.7883,-3.7881,-3.788,-3.7888,-3.789,-3.7892,-3.7935,0,0,-3.7897,-3.7898,0,0,0,0,0,0,0,0,-3.7874,-3.7877,-3.7895,-3.7894,-3.7893,-3.7899,-3.7904,-3.7925,-3.7885,-3.7887,-3.7881,-3.7879,-3.7894,-3.7895,-3.79,-3.7935,-3.7936,-3.7898,-3.7899,-3.79,-3.79,0,0,0,0,0,0,0,-3.7873,-3.7876,-3.7913,-3.7895,-3.7894,-3.7885,-3.7885,-3.7908,-3.7899,-3.7887,-3.7884,-3.7886,-3.7892,-3.7898,-3.79,-3.7936,-3.7898,-3.7899,-3.79,-3.7901,-3.8007,-3.8009,0,0,0,0,0,0,-3.7874,-3.7875,-3.7913,-3.7913,-3.7879,-3.7887,-3.7888,-3.7898,-3.7899,-3.7897,-3.7887,-3.7884,-3.7896,-3.7898,-3.79,-3.7951,-3.7899,-3.7901,-3.7902,-3.8005,-3.8008,-3.8009,0,0,0,0,0,0,-3.7873,-3.7878,-3.7912,-3.7894,-3.7897,-3.7889,-3.7902,-3.7899,-3.7905,-3.7899,-3.7897,-3.7895,-3.7895,-3.7898,-3.7927,-3.7951,-3.7902,-3.7904,-3.8003,-3.8006,-3.8008,-3.8053,0,0,0,0,0,0,-3.7872,-3.7877,-3.7894,-3.7894,-3.7899,-3.7939,-3.7903,-3.7901,-3.7909,-3.7905,-3.7906,-3.7905,-3.7894,-3.7924,-3.7929,-3.7952,-3.7905,-3.8001,-3.8005,-3.8008,-3.8049,-3.8057,-3.8063,0,0,0,0,0,-3.787,-3.7906,-3.7895,-3.79,-3.7919,-3.7941,-3.7943,-3.7931,-3.7911,-3.7927,-3.7923,-3.7905,-3.7947,-3.7928,-3.7932,-3.7957,-3.8,-3.8004,-3.8007,-3.8046,-3.8055,-3.8063,0,0,0,0,0,0,-3.7908,-3.7905,-3.7894,-3.7931,-3.7936,-3.7935,-3.7955,-3.794,-3.7951,-3.7947,-3.793,-3.7931,-3.7963,-3.7963,-3.7941,-3.7999,-3.797,-3.7975,-3.7998,-3.8007,-3.8013,-3.8013,-3.7907,0,0,0,0,0,-3.792,-3.7939,-3.7935,-3.7968,-3.7972,-3.7963,-3.7972,-3.7962,-3.7967,-3.7969,-3.7967,-3.7972,-3.7986,-3.7996,-3.8009,-3.8049,-3.8049,-3.8068,-3.8075,-3.8081,-3.8085,-3.8107,-3.8115,-3.8022,-3.8022,-3.8022,0,0,-3.7947,-3.7948,-3.796,-3.7976,-3.7979,-3.7998,-3.7965,-3.7986,-3.8,-3.7972,-3.8,-3.7998,-3.8003,-3.8037,-3.8053,-3.8038,-3.8111,-3.8086,-3.809,-3.8092,-3.8112,-3.812,-3.8128,-3.8025,-3.8024,-3.8024,0,0,-3.8004,-3.8007,-3.8035,-3.8039,-3.8045,-3.8039,-3.8046,-3.8046,-3.8045,-3.8073,-3.8052,-3.8067,-3.8093,-3.8097,-3.8102,-3.8162,-3.8145,-3.8167,-3.8203,-3.8224,-3.8231,-3.8238,-3.826,-3.8268,-3.8171,-3.8171,-3.8171,0,-3.8036,-3.8065,-3.8051,-3.8074,-3.8082,-3.8058,-3.8086,-3.809,-3.8099,-3.8105,-3.8089,-3.812,-3.8122,-3.8157,-3.8172,-3.8177,-3.8184,-3.8167,-3.8231,-3.8238,-3.8244,-3.8264,-3.8272,-3.8174,-3.8174,-3.8173,-3.8173,0,-3.8104,-3.8124,-3.8146,-3.8156,-3.8166,-3.8192,-3.8182,-3.8193,-3.8182,-3.8178,-3.8207,-3.8207,-3.822,-3.8228,-3.8217,-3.8262,-3.8253,-3.8234,-3.8205,-3.8255,-3.8274,-3.8282,-3.8178,-3.8177,-3.8176,-3.8175,0,0,-3.8186,-3.8189,-3.8197,-3.8202,-3.8207,-3.8221,-3.8246,-3.8259,-3.827,-3.8277,-3.8297,-3.8319,-3.8302,-3.8308,-3.8297,-3.8316,-3.8364,-3.8295,-3.8295,-3.8308,-3.8414,-3.8428,-3.8438,-3.8353,-3.8354,-3.8355,-3.8414,0,-3.8243,-3.8286,-3.8274,-3.8316,-3.8335,-3.8312,-3.8333,-3.8338,-3.8335,-3.8349,-3.8345,-3.8361,-3.8337,-3.8341,-3.8358,-3.8354,-3.8385,-3.835,-3.8371,-3.8372,-3.8371,-3.8448,-3.8463,-3.8518,-3.8421,-3.8422,-3.8423,0,-3.8316,-3.8327,-3.8371,-3.8373,-3.838,-3.84,-3.8411,-3.8426,-3.843,-3.8427,-3.8434,-3.842,-3.8443,-3.8414,-3.8446,-3.8423,-3.843,-3.843,-3.8432,-3.8433,-3.8401,-3.8452,-3.8535,-3.8544,-3.8435,-3.8434,-3.8433,0,-3.8372,-3.8397,-3.8428,-3.8432,-3.8435,-3.8449,-3.8451,-3.8454,-3.8463,-3.8473,-3.8479,-3.8491,-3.8498,-3.8507,-3.8497,-3.8476,-3.8531,-3.85,-3.8528,-3.8529,-3.8541,-3.854,-3.8627,-3.8545,-3.8545,-3.8545,-3.8545,0,-3.8437,-3.8465,-3.8453,-3.8471,-3.8502,-3.8489,-3.8519,-3.8518,-3.8522,-3.8539,-3.852,-3.8536,-3.8521,-3.8537,-3.8528,-3.8556,-3.8559,-3.8557,-3.8554,-3.8559,-3.8559,-3.8564,-3.856,-3.8547,-3.8547,-3.8546,-3.8546,0,-3.8505,-3.8498,-3.8529,-3.853,-3.8531,-3.8553,-3.8553,-3.857,-3.8565,-3.8588,-3.8592,-3.8585,-3.8602,-3.8592,-3.8609,-3.8604,-3.8641,-3.8633,-3.8639,-3.8638,-3.8666,-3.8664,-3.876,-3.8772,-3.8681,-3.8682,-3.8683,0,-3.8548,-3.8569,-3.8572,-3.8583,-3.8586,-3.8604,-3.8613,-3.8601,-3.8611,-3.8618,-3.8634,-3.865,-3.8662,-3.869,-3.8686,-3.8699,-3.8691,-3.8724,-3.8693,-3.8697,-3.8692,-3.8692,-3.8694,-3.873,-3.8731,-3.8732,-3.8733,0,-3.8624,-3.862,-3.8634,-3.8648,-3.866,-3.867,-3.8678,-3.8688,-3.8675,-3.8688,-3.8706,-3.8715,-3.8733,-3.8749,-3.876,-3.8761,-3.8745,-3.8743,-3.875,-3.8755,-3.8758,-3.8757,-3.8657,-3.8741,-3.874,-3.8739,-3.8739,-3.8739,-3.8681,-3.8699,-3.8704,-3.8721,-3.8726,-3.8735,-3.8751,-3.8749,-3.8763,-3.8778,-3.8769,-3.879,-3.8794,-3.8808,-3.8811,-3.8827,-3.8814,-3.8824,-3.8827,-3.883,-3.8834,-3.8756,-3.8829,-3.8829,-3.8828,-3.8828,-3.8828,0,-3.8757,-3.8759,-3.8775,-3.8788,-3.8801,-3.8786,-3.8794,-3.8806,-3.8825,-3.8831,-3.8843,-3.8864,-3.8879,-3.8876,-3.889,-3.8903,-3.8896,-3.8907,-3.8906,-3.8907,-3.8845,-3.8837,-3.8912,-3.8912,-3.8912,-3.8912,-3.8912,-3.8912,-3.8798,-3.8828,-3.8824,-3.8857,-3.8858,-3.888,-3.8886,-3.8893,-3.8898,-3.8922,-3.8935,-3.8933,-3.8935,-3.8949,-3.8962,-3.8961,-3.8967,-3.8981,-3.8977,-3.8919,-3.8911,-3.8903,-3.8896,-3.8982,-3.8982,-3.9038,-3.9038,-3.9039]}]]